Weather Roundup
Issued by NWS Springfield, MO

Home | Current Version | Previous Version | Text Only | Print | Product List | Glossary On
Versions: 1 2 3 4 5 6 7 8 9 10 11 12 13 14 15 16 17 18 19 20 21 22 23 24 25 26 27 28 29 30 31 32 33 34 35 36 37 38 39 40 41 42 43 44 45 46 47 48 49 50
000
NZUS99 KSGF 280910
HRRSGF

HOURLY WEATHER
NATIONAL WEATHER SERVICE SPRINGFIELD MO
400 AM CDT FRI AUG 28 2015

......SGF CWA......

CITY           SKY/WX    TMP DP  RH WIND       PRES   REMARKS
SPRINGFIELD    PTCLDY    64  59  83 S12       30.04F
JOPLIN         MOCLDY    67  62  84 S10       30.02R
WEST PLAINS    PTCLDY    60  55  83 CALM      30.10R
ROLLA          MOCLDY    60  57  89 SE5       30.08R
OSAGE BEACH    MOCLDY    63  55  77 S3        30.07S
BRANSON        CLOUDY    59  57  94 CALM      30.08S

......SURROUNDING SGF CWA......

CITY           SKY/WX    TMP DP  RH WIND       PRES   REMARKS
CHANUTE        CLOUDY    66  63  90 S7        30.00R
COFFEYVILLE    CLOUDY    67  64  90 S3        29.99R
EMPORIA        CLOUDY    68  64  87 S5        29.95F
GROVE OK       CLEAR     68  68 100 CALM      30.03S
ROGERS AR      CLEAR     64  59  83 SE7       30.07R
SILOAM SPRINGS CLEAR     64  55  72 SE8       30.03F
NEAR YELLVILLE MOCLDY    61  55  82 CALM      30.05R

......KANSAS AND MISSOURI......

CITY           SKY/WX    TMP DP  RH WIND       PRES   REMARKS
KANSAS CTY INT CLOUDY    70  64  81 S9        29.97S
DOWNTOWN KC    CLOUDY    71  66  84 S8        29.98R
COLUMBIA       MOCLDY    61  59  93 SE8       30.07S
SEDALIA        CLOUDY    64  60  87 SE6       30.05R
ST JOSEPH      CLOUDY    70  66  87 SE9       29.94F
ST LOUIS       MOCLDY    64  58  80 E6        30.10S
SPIRIT OF STL  CLEAR     59  58  96 CALM      30.09S
KIRKSVILLE     MOCLDY    61  58  90 SE9       30.06F
WICHITA        CLOUDY    73  67  81 S10       29.93F
TOPEKA         LGT RAIN  70  64  81 SE8       29.95S
OLATHE         CLOUDY    67  66  97 S7        29.99R

......TENNESSEE......

CITY           SKY/WX    TMP DP  RH WIND       PRES   REMARKS
MEMPHIS        CLEAR     67  60  78 VRB5      30.05R
NASHVILLE      PTCLDY    63  56  78 CALM      30.09R

......ARKANSAS.......

CITY           SKY/WX    TMP DP  RH WIND       PRES   REMARKS
FAYETTEVILLE   CLEAR     60  60 100 CALM      30.05S
FT SMITH       CLEAR     65  62  90 E5        30.03S
LITTLE ROCK    PTCLDY    64  60  87 NE3       30.04F

......OKLAHOMA.......

CITY           SKY/WX    TMP DP  RH WIND       PRES   REMARKS
TULSA          CLOUDY    71  66  84 S5        29.98S
PONCA CITY     CLOUDY    72  66  81 MISG      29.98S
MCALESTER      CLEAR     69  62  78 CALM      30.02S
OKLAHOMA CITY  CLOUDY    74  63  68 S10       29.97F

......IOWA............

CITY           SKY/WX    TMP DP  RH WIND       PRES   REMARKS
DES MOINES     LGT RAIN  65  60  84 E9        30.02S
QUAD CITIES    CLOUDY    62  57  83 SE3       30.08S

......ILLINOIS........

CITY           SKY/WX    TMP DP  RH WIND       PRES   REMARKS
QUINCY         PTCLDY    60  56  86 SE6       30.08S
CHICAGO        PTCLDY    59  55  87 S3        30.12S



USA.gov is the U.S. government's official web portal to all federal, state and local government web resources and services.